Terminal Aerodrome Forecast
Issued by NWS Cleveland, OH

Home | Current Version | Previous Version | Text Only | Print | Product List | Glossary Off
Versions: 1 2 3 4 5 6 7 8 9 10 11 12 13 14 15 16

000
FTUS41 KCLE 271100
TAFCAK
TAF
KCAK 271122Z 2712/2812 33005KT P6SM -SN OVC015
     FM271600 31010KT P6SM BKN035
     FM280000 35010KT P6SM OVC050
     FM280300 34010KT P6SM OVC100
     FM280600 32008KT P6SM SCT250=

USA.gov is the U.S. government's official web portal to all federal, state and local government web resources and services.